St. David's Bench

*Note: All times are displayed in the local standard time of the station location.
**Rain - Equipment is designed to accurately record liquid precipitation; under conditions when precipitation is not in liquid form, the data displayed may not properly reflect rainfall values.

Date Max Temp
(°C)
Min Temp
(°C)
Avg Temp
(°C)
Rain (mm) Avg RH (%)
Sat, Feb 17, 2018 -1.2 -6.3 -3.2 0.0 70.5
Fri, Feb 16, 2018 4.7 -5.7 -0.1 0.2 78.8
Thu, Feb 15, 2018 9.9 2.9 6.5 0.2 93.1
Wed, Feb 14, 2018 5.5 -1.9 3.1 5.4 72.4
Tue, Feb 13, 2018 0.1 -16.2 -7.1 0.4 72.9
Mon, Feb 12, 2018 -2.0 -11.0 -4.6 0.2 70.6
Sun, Feb 11, 2018 0.8 -4.2 -1.8 6.2 91.5
DateTime Avg Temp (°C) Rain (mm) RH (%)
Sun, Feb 18, 2018 04:00 -2.1 0.0 85.5
Sun, Feb 18, 2018 03:00 -1.7 0.0 84.3
Sun, Feb 18, 2018 02:00 -1.8 0.0 86.3
Sun, Feb 18, 2018 01:00 -2.1 0.0 88.3
Sun, Feb 18, 2018 00:00 -1.8 0.0 84.5
Sat, Feb 17, 2018 23:00 -1.7 0.0 78.0
Sat, Feb 17, 2018 22:00 -1.8 0.0 69.8
Sat, Feb 17, 2018 21:00 -1.8 0.0 67.8
Sat, Feb 17, 2018 20:00 -1.8 0.0 63.8
Sat, Feb 17, 2018 19:00 -1.8 0.0 61.0
Sat, Feb 17, 2018 18:00 -1.6 0.0 59.0
Sat, Feb 17, 2018 17:00 -1.5 0.0 58.5
Sat, Feb 17, 2018 16:00 -1.5 0.0 57.8
Sat, Feb 17, 2018 15:00 -1.2 0.0 58.5
Sat, Feb 17, 2018 14:00 -1.2 0.0 59.8
Sat, Feb 17, 2018 13:00 -1.3 0.0 62.3
Sat, Feb 17, 2018 12:00 -1.4 0.0 63.5
Sat, Feb 17, 2018 11:00 -2.0 0.0 65.8
Sat, Feb 17, 2018 10:00 -2.8 0.0 67.3
Sat, Feb 17, 2018 09:00 -4.3 0.0 74.8
Sat, Feb 17, 2018 08:00 -5.9 0.0 80.8
Sat, Feb 17, 2018 07:00 -6.3 0.0 81.8
Sat, Feb 17, 2018 06:00 -6.1 0.0 82.8
Sat, Feb 17, 2018 05:00 -6.0 0.0 84.8
Sat, Feb 17, 2018 04:00 -5.8 0.0 83.5
Sat, Feb 17, 2018 03:00 -5.6 0.0 76.8
Sat, Feb 17, 2018 02:00 -5.8 0.0 74.0
Sat, Feb 17, 2018 01:00 -5.9 0.0 75.5
Sat, Feb 17, 2018 00:00 -5.6 0.0 73.5
Fri, Feb 16, 2018 23:00 -5.1 0.0 69.8
Fri, Feb 16, 2018 22:00 -4.6 0.0 70.5
Fri, Feb 16, 2018 21:00 -4.1 0.0 64.3
Fri, Feb 16, 2018 20:00 -3.6 0.0 62.3
Fri, Feb 16, 2018 19:00 -3.3 0.0 59.0
Fri, Feb 16, 2018 18:00 -2.5 0.0 61.3
Fri, Feb 16, 2018 17:00 -1.0 0.0 59.8
Fri, Feb 16, 2018 16:00 0.3 0.0 61.5
Fri, Feb 16, 2018 15:00 1.4 0.0 61.5
Fri, Feb 16, 2018 14:00 1.6 0.0 65.3
Fri, Feb 16, 2018 13:00 1.6 0.0 70.5
Fri, Feb 16, 2018 12:00 1.5 0.0 80.5
Fri, Feb 16, 2018 11:00 1.0 0.0 89.3
Fri, Feb 16, 2018 10:00 1.2 0.0 86.5
Fri, Feb 16, 2018 09:00 0.9 0.0 88.8
Fri, Feb 16, 2018 08:00 1.2 0.2 88.3
Fri, Feb 16, 2018 07:00 1.8 0.0 90.3
Fri, Feb 16, 2018 06:00 1.6 0.0 90.8
Fri, Feb 16, 2018 05:00 1.6 0.0 97.3


asterix Register now to access more data! asterix